RH
13 8 8 12 12 12 14 17 21 24 29 79 100 82 100 97 91 69 52 48 73 76 64 97 80 57 58 54 71 64 54 66 47 43 35 37 36 42 35 28 36 92 46 34
7 7 8 9 10 10 12 13 15 15 21 34 86 87 100 95 90 75 67 48 92 78 76 94 74 66 94 100 73 62 38 41 42 42 39 38 37 33 31 28 31 49 43 35
4 5 5 5 6 6 8 11 15 16 23 27 37 61 66 88 93 83 71 74 87 86 79 66 65 62 100 100 100 98 84 58 49 46 44 45 44 40 39 30 34 52 45 37
4 5 5 5 5 5 6 8 14 20 22 29 30 44 46 61 95 99 100 95 96 100 89 71 84 100 100 100 100 96 100 76 52 63 53 58 52 46 48 39 42 63 48 38
4 5 6 6 6 6 7 9 13 16 22 32 28 37 43 56 95 93 100 100 100 100 100 100 100 100 100 100 100 88 68 63 56 63 58 63 60 60 57 38 51 52 52 39
5 4 5 8 8 7 7 7 11 14 20 26 32 33 42 54 83 96 100 100 100 100 100 100 100 100 100 100 100 100 96 93 68 77 72 74 81 69 57 42 51 54 51 42
4 6 7 8 9 7 6 9 11 13 20 35 36 42 46 55 82 79 82 92 100 100 100 100 100 100 100 100 100 100 100 99 87 85 95 90 83 79 62 45 54 60 49 45
5 6 10 10 10 10 9 10 13 20 29 43 49 49 44 54 59 63 58 70 94 100 100 100 100 100 100 100 100 100 98 99 100 96 93 96 91 82 66 48 55 63 49 45
7 8 11 11 10 10 11 13 16 23 34 50 79 68 62 68 76 51 62 69 85 100 100 100 100 100 100 100 100 100 100 100 100 100 99 94 88 86 67 51 60 60 50 45
11 12 13 12 12 13 18 21 27 28 39 88 93 91 95 98 98 65 82 88 82 92 100 100 100 100 100 100 100 100 100 100 100 100 100 93 92 91 70 54 53 62 53 48
13 13 13 15 18 29 38 57 52 62 59 90 64 92 100 95 96 81 73 73 93 100 100 100 100 100 100 100 100 100 100 100 100 100 88 80 83 98 72 67 77 73 49 50
19 18 20 25 45 80 100 100 100 100 100 100 100 100 100 100 100 97 100 99 96 88 90 84 100 100 98 100 100 100 100 100 100 93 78 87 100 91 72 78 100 99 50 52
47 40 46 46 75 80 100 100 100 100 100 100 100 100 100 100 100 100 69 84 100 100 100 100 99 100 100 100 100 100 100 99 97 78 74 93 100 90 86 69 76 82 56 48
47 69 84 95 100 100 100 100 100 100 100 100 100 100 100 100 100 95 80 77 84 81 86 91 93 94 98 96 96 98 98 87 91 84 97 100 100 100 100 100 78 67 54 44
75 98 100 100 100 100 100 100 100 100 100 100 100 100 100 100 95 95 91 98 99 100 100 100 100 100 98 93 89 99 100 91 99 100 100 100 98 97 79 98 100 86 61 52
99 100 100 100 100 100 100 100 100 100 100 100 100 100 100 92 100 100 100 100 100 100 100 100 100 100 100 94 100 100 90 98 100 94 94 93 92 84 59 76 100 73 69 55
98 100 100 98 100 100 100 100 100 100 100 100 100 100 100 100 100 100 100 100 100 99 86 100 96 89 92 83 73 71 65 60 63 65 65 61 58 55 50 93 100 81 72 78
100 98 100 98 100 99 94 99 100 100 100 100 100 100 100 100 100 97 75 73 72 95 92 72 67 65 62 58 56 60 78 65 59 52 47 54 59 67 73 96 100 74 92 97
83 92 100 90 95 100 100 100 100 100 96 94 100 100 100 94 83 79 71 97 100 89 79 74 69 71 65 98 86 100 100 99 79 63 39 43 53 76 70 89 100 87 100 100
89 88 83 86 90 93 99 100 100 100 100 94 100 100 100 100 84 82 96 84 86 90 82 76 69 67 96 100 100 100 100 91 100 100 67 42 35 52 76 83 92 100 100 99
46 87 71 72 79 82 88 92 94 97 100 100 97 94 93 100 100 100 94 90 93 97 92 76 65 75 100 97 100 100 100 100 100 100 100 94 65 80 98 94 100 83 82 92
43 40 54 53 76 96 93 96 98 95 99 98 99 98 99 97 96 92 90 92 94 94 91 73 68 94 100 100 93 100 100 100 98 100 100 100 100 86 100 89 100 100 100 100
54 55 53 49 44 66 84 90 97 99 100 100 97 95 93 94 93 92 91 89 87 89 97 78 70 100 100 100 99 100 100 100 100 100 100 100 100 100 100 100 100 100 100 100
55 57 57 53 52 70 100 100 100 99 100 100 99 98 95 96 99 98 91 83 87 91 97 79 70 99 100 100 100 100 100 100 100 100 100 100 100 100 95 100 100 100 100 100
50 52 48 44 42 42 58 88 98 98 94 92 96 99 98 98 90 86 77 86 90 86 88 77 62 87 100 100 100 100 100 100 100 100 100 100 100 99 100 100 100 100 100 100
42 47 42 34 34 36 40 42 43 44 47 54 62 73 75 65 68 76 78 89 92 85 79 75 62 68 97 91 100 100 100 98 100 100 100 100 100 100 100 99 100 100 100 100
Wind_Speed
91 97 84 79 91 92 92 97 95 96 98 105 105 91 90 88 85 73 71 70 73 73 62 59 58 56 54 55 55 52 50 57 57 53 51 51 50 49 50 46 46 52 44 40
80 81 71 76 80 81 85 90 93 83 84 98 103 95 91 91 82 79 75 69 75 79 71 69 63 59 59 59 57 56 52 53 55 54 50 52 50 50 49 44 45 46 41 39
69 69 71 71 71 71 74 78 75 78 87 91 94 99 94 86 84 82 77 73 73 74 78 77 66 63 63 60 55 57 57 54 55 58 54 52 52 52 50 44 45 39 38 38
56 63 65 64 62 64 64 61 69 73 82 89 87 94 87 85 83 86 84 78 78 80 77 70 67 70 67 62 63 61 64 62 58 62 57 55 54 55 52 45 43 38 37 37
50 51 51 51 50 56 53 60 67 74 74 88 87 91 83 87 90 86 86 89 77 73 68 71 68 65 68 65 64 67 66 67 58 62 58 56 56 55 56 45 43 40 36 35
39 42 40 40 47 48 58 55 55 63 69 77 78 82 83 90 90 90 92 87 80 78 69 63 62 63 64 63 67 66 64 67 62 63 60 57 60 59 55 46 44 41 35 35
35 34 36 38 41 44 47 45 48 52 58 61 71 79 82 89 94 93 88 87 89 79 77 74 63 64 66 71 72 70 64 67 64 66 62 62 64 56 54 47 43 41 36 35
30 30 29 34 35 40 42 40 38 43 51 58 66 72 77 84 93 93 95 87 83 81 75 70 71 69 68 69 70 66 68 70 71 75 71 67 64 57 53 48 43 44 38 36
26 27 28 28 32 34 33 30 37 42 47 53 62 65 71 75 88 86 84 83 80 83 80 77 71 72 69 66 70 71 73 75 77 77 70 66 65 58 52 48 45 43 38 39
20 26 26 29 31 32 32 36 35 37 45 54 59 64 65 71 80 75 77 82 81 86 86 80 76 78 75 75 76 77 75 76 79 76 68 67 63 58 52 50 48 46 39 42
19 21 27 29 31 32 30 28 32 35 39 47 47 50 60 67 73 73 76 77 80 84 84 84 82 83 79 77 79 81 79 82 82 80 74 66 63 56 52 48 47 46 43 44
20 24 28 30 32 34 30 27 27 32 30 35 36 44 59 69 70 69 69 70 76 82 85 88 85 85 83 82 80 83 84 85 80 77 72 66 61 56 51 53 50 48 49 44
29 28 28 28 26 32 40 38 27 25 35 42 47 53 62 59 64 67 70 68 71 75 80 84 84 81 79 80 83 86 86 87 79 74 69 62 53 52 49 54 58 55 52 46
34 34 32 34 31 33 39 40 33 39 39 46 49 53 60 59 63 60 58 61 69 76 80 82 82 81 80 76 73 76 78 75 69 68 63 61 57 54 51 55 58 57 54 49
35 37 36 37 32 37 46 46 44 45 41 46 44 42 49 47 42 35 31 33 36 42 46 49 53 55 58 65 68 70 69 69 66 65 65 64 64 62 57 55 61 61 55 51
39 39 39 43 38 42 47 53 46 50 50 46 43 42 45 38 37 41 45 49 49 50 51 49 53 57 58 60 63 62 63 62 65 69 71 70 68 67 63 61 62 62 56 54
49 48 48 45 41 41 45 53 48 49 49 48 47 44 46 49 52 53 54 54 56 57 55 49 50 51 52 52 52 55 58 60 65 69 71 73 73 72 67 57 62 56 52 49
50 52 53 47 46 45 46 50 53 56 60 57 56 56 55 56 57 59 59 60 49 45 47 50 52 48 48 47 46 36 25 30 38 54 60 61 66 64 62 58 59 55 51 51
54 56 53 51 51 49 49 49 49 48 48 55 59 62 61 64 64 59 51 44 48 49 49 46 42 41 39 36 33 33 26 25 18 26 43 51 52 50 58 58 56 54 49 51
55 56 57 55 53 52 54 52 51 50 50 47 47 49 49 50 51 49 49 50 48 46 45 43 40 40 43 43 35 34 41 26 22 29 27 36 43 48 51 57 53 49 46 51
51 58 57 56 55 55 54 53 52 53 54 55 54 55 54 56 57 56 55 54 49 48 46 44 40 42 53 48 43 45 48 49 38 30 30 30 34 34 31 38 45 44 44 35
48 48 53 52 56 59 58 56 56 55 55 55 56 57 57 58 59 60 58 56 54 53 52 48 43 49 57 60 54 55 54 57 51 34 28 34 36 48 42 40 43 38 45 49
46 50 50 45 45 51 57 58 58 58 59 60 60 60 60 60 59 58 58 58 56 54 51 49 45 56 63 62 60 59 52 55 64 50 42 42 49 46 46 49 44 57 55 50
45 46 47 47 46 47 55 58 61 62 63 64 64 63 61 60 61 59 56 54 53 53 54 51 50 64 70 66 66 66 63 61 67 62 54 54 52 52 56 52 53 54 65 65
46 48 48 47 46 44 47 54 60 62 61 60 60 60 60 59 57 55 54 53 55 56 57 57 55 63 77 76 75 73 72 73 74 72 64 64 63 62 62 66 64 65 67 70
49 48 48 46 42 40 43 48 53 56 57 57 58 58 58 57 56 56 55 55 57 61 61 61 58 59 78 81 82 79 79 80 81 77 79 75 74 67 72 72 76 72 74 79
Wind_Direction
264 261 263 260 252 250 247 245 244 242 239 241 243 239 242 244 248 250 247 245 244 244 241 245 247 253 259 264 266 267 271 273 278 281 284 287 291 289 290 296 287 286 286 283
261 265 259 253 249 247 243 242 239 238 237 239 239 240 240 244 245 249 248 245 245 244 245 246 249 252 256 261 264 267 270 275 277 277 282 287 290 292 297 296 292 281 279 281
259 257 254 252 250 247 244 241 240 235 233 235 236 237 237 239 241 248 248 247 246 248 247 246 251 255 255 255 259 269 269 272 275 276 284 285 291 296 299 294 295 276 277 276
257 253 251 248 246 244 241 239 235 231 231 230 231 235 234 236 236 239 241 244 244 243 249 252 248 250 254 256 261 261 268 270 275 275 281 284 288 293 299 294 290 271 274 272
249 249 245 244 241 237 232 230 228 225 224 226 227 230 230 232 233 235 237 239 240 243 247 248 250 254 256 258 259 261 267 269 270 273 277 280 287 294 298 295 283 268 271 265
245 246 244 236 232 227 224 226 228 226 222 224 225 227 229 232 233 231 234 238 238 237 239 243 246 250 254 259 259 257 259 263 266 268 275 281 285 292 293 292 281 266 266 259
228 229 231 228 226 224 223 221 224 224 222 220 222 225 224 229 233 235 236 239 239 240 242 244 244 244 248 252 256 259 262 263 269 272 275 280 285 287 286 286 274 264 262 251
229 219 218 219 213 212 209 211 214 216 215 216 220 223 226 230 233 237 237 237 239 240 241 240 239 242 247 253 255 255 259 263 269 273 276 279 284 283 282 281 267 262 262 244
218 218 211 211 206 202 201 200 204 207 207 212 214 220 226 229 236 235 238 237 239 238 238 240 243 243 245 250 255 257 260 265 269 271 275 278 281 280 277 274 264 260 259 239
209 205 200 195 192 192 189 194 194 199 201 208 214 219 223 228 234 234 234 234 240 239 238 241 244 244 245 249 254 258 261 265 266 272 273 277 276 273 269 267 263 259 255 239
206 205 191 185 181 177 178 183 191 194 201 208 217 221 226 232 236 236 236 235 235 237 239 242 243 245 246 248 251 256 260 263 267 269 273 273 272 265 264 259 260 258 250 238
184 186 180 176 172 165 163 183 185 192 198 203 201 220 225 231 237 238 239 239 240 241 241 242 243 246 249 250 254 258 258 260 264 267 270 267 266 258 257 252 254 254 255 241
169 173 173 167 165 173 173 188 177 194 193 198 201 214 224 222 229 236 238 237 239 242 243 245 246 249 251 252 255 257 258 260 263 266 266 261 251 254 253 255 253 254 257 245
172 169 167 164 166 174 185 187 197 201 204 206 211 219 225 224 232 242 247 246 244 245 247 250 252 252 252 254 255 256 257 259 258 260 256 251 248 249 253 255 256 256 257 245
175 170 171 175 182 187 187 190 194 203 200 207 215 224 232 229 235 243 244 239 238 236 236 237 242 244 245 248 250 251 253 254 251 250 251 250 248 248 250 251 254 253 254 249
179 179 179 186 192 192 198 190 197 205 206 211 216 222 225 236 235 237 236 236 234 233 238 239 242 241 241 246 243 243 247 247 247 247 248 248 246 245 251 251 248 253 251 248
185 185 192 192 195 198 198 200 205 207 212 215 213 218 225 225 230 232 233 235 238 242 247 250 248 244 245 248 247 249 252 253 252 253 253 251 250 247 249 241 243 246 245 243
196 198 198 194 199 203 205 205 208 213 216 220 223 228 228 233 235 237 242 247 251 252 253 252 251 254 252 250 248 239 253 244 248 248 247 245 244 241 237 233 236 237 239 240
202 204 208 204 205 204 210 212 214 219 221 223 228 232 236 239 243 247 248 250 252 254 258 257 253 248 246 219 203 198 239 270 273 268 246 245 236 231 230 226 227 230 233 236
210 212 213 214 212 209 212 217 218 221 224 225 225 230 236 244 249 250 254 256 257 257 255 253 248 238 216 206 208 210 222 252 274 287 263 244 235 224 222 219 223 224 233 237
215 217 221 221 219 217 218 220 223 223 227 230 232 236 239 241 245 248 251 256 255 254 255 250 245 231 207 205 197 204 214 236 250 266 259 244 234 205 206 217 219 226 236 240
224 223 226 230 227 225 226 227 228 230 231 235 238 240 242 245 247 250 253 255 256 256 256 251 235 222 210 211 206 211 213 225 242 243 243 215 203 204 204 213 216 241 236 233
224 232 237 240 239 235 233 234 234 236 237 240 243 246 249 250 253 256 257 257 256 252 245 245 231 219 213 216 217 218 217 218 226 233 232 213 210 216 213 204 211 222 228 237
219 225 230 233 233 234 236 236 238 239 242 244 247 251 253 255 257 258 256 254 251 244 241 240 232 218 215 219 219 221 219 220 218 228 226 222 221 208 211 218 223 231 228 235
219 224 227 229 228 226 227 234 237 241 244 246 248 250 252 254 254 254 253 252 248 242 240 241 235 223 217 219 221 220 220 215 219 224 226 229 223 223 219 219 224 230 228 232
220 225 229 233 233 233 233 236 238 240 242 244 245 247 249 250 251 251 251 251 250 246 245 244 242 229 222 221 222 221 219 219 219 224 226 228 230 220 222 228 225 229 231 233